YAOGAN 30 DEB

Satellite information

Favourite Embed

Satellite Type and Status

DEBRISIN ORBIT

Key statistics

Satellite YAOGAN 30 DEB at a glance.

Uptime

3281

Days in orbit

Revolutions

≈ 14.3

Per day

Orbit

SSO

Sun Synchronous Orbit

Inclination

98.0

Latest

Satellite identification and parameters

Extended collection of information and parameters for YAOGAN 30 DEB.

Object identification

Identified? True

Debris? True

Object name: YAOGAN 30 DEB

International designator: 2016-029C

Object number (NORAD): 42677

Object ID (CCSDS): 42677

Country: PEOPLES REPUBLIC OF CHINA (PRC)

Current information (Y/N): Y

RCS size: SMALL

Orbital parameters

Period: 100.723 minutes

Inclination: 97.9599 deg

SMA: 7171.008 km

Apoapsis: 961.38 km

Periapsis: 624.366 km

RAAN: 275.0176 deg

Eccentricy: 0.0234984

Argument of periapsis: 190.759 deg

Mean anomaly: 168.8519 deg

Mean motion: 14.2965899 rev/day

Mean motion (dot): 0.00003973 rev/day2

B* drag term: 0.0011616 1/REarth

Two-line elements (TLE)

Creation date: May 7, 2025, 10:46 p.m.

Reference frame: TEME

Reference center: EARTH

Epoch: May 7, 2025, 8:56 p.m. UTC

TLE line 0: 0 YAOGAN 30 DEB

TLE line 1: 1 42677U 16029C 25127.87283372 .00003973 00000-0 11616-2 0 9990

TLE line 2: 2 42677 97.9599 275.0176 0234984 190.7590 168.8519 14.29658990453918

Live tracking on map

Real-time ground track for satellite YAOGAN 30 DEB.

In-orbit conjunctions

A list of the most updated potential collisions computed for object YAOGAN 30 DEB.

Target Orbit TCA Probability of collision Miss distance Type
SL-14 R/B LEO 2024-08-01 03:54:54 0.0001075312 65.0 (m) ROCKET BODY
SECOR 1B LEO 2024-07-07 15:36:40 0.0002847026 640.0 (m) PAYLOAD

Associated space launch

The satellite will be used for experiments, land surveys, crop yield estimates and disaster relief.

YAOGAN 30 DEB was lifted into orbit during the mission ‘Long March 2D | Yaogan-30’, on board a Long March 2D space rocket.

The launch took place on May 15, 2016, 2:43 a.m. from Launch Area 4 (SLS-2 / 603).

For more information about the launch, click the button.

Launch to space Long March 2D | Yaogan-30
Long March 2D | Yaogan-30

Agency: N/A

Status: Launch Successful

Launch date: May 15, 2016, 2:43 a.m. UTC

Rocket: Long March 2D

Launch pad: Launch Area 4 (SLS-2 / 603)

Location: Jiuquan Satellite Launch Center, People's Republic of China

...

Latest news about this satellite

There are no fresh news available about this satellite. Check back as we update our databases every day.


Newsletter sign-up

Weekly statistics, charts and insights to help you stay on top of the space industry.